| time (UTC) | temp C | wind direction | speed KPH | gust KPH | rain 1hr cm | rain 24hr cm | rain mn cm | humidity % | barometer mb |
| 20260505091547 | 9 | 0 | 0.0 | 11.3 | 0.00 | 0.00 | 0.00 | 92 | 1010.4 |
| 20260505091037 | 9 | 0 | 0.0 | 11.3 | 0.00 | 0.00 | 0.00 | 92 | 1010.4 |
| 20260505090537 | 8 | 239 | 0.0 | 8.0 | 0.00 | 0.00 | 0.00 | 93 | 1010.4 |
| 20260505090047 | 8 | 0 | 0.0 | 8.0 | 0.00 | 0.00 | 0.00 | 93 | 1010.4 |
| 20260505085538 | 8 | 258 | 0.0 | 1.6 | 0.00 | 0.00 | 0.00 | 92 | 1010.4 |
| 20260505085037 | 8 | 0 | 0.0 | 1.6 | 0.00 | 0.00 | 0.00 | 92 | 1010.6 |
| 20260505084553 | 8 | 266 | 0.0 | 1.6 | 0.00 | 0.00 | 0.00 | 92 | 1010.5 |
| 20260505084038 | 8 | 0 | 0.0 | 0.0 | 0.00 | 0.00 | 0.00 | 92 | 1010.4 |
| 20260505083536 | 8 | 0 | 0.0 | 0.0 | 0.00 | 0.00 | 0.00 | 91 | 1010.4 |
| 20260505083051 | 8 | 0 | 0.0 | 0.0 | 0.00 | 0.00 | 0.00 | 91 | 1010.3 |
| 20260505082536 | 8 | 0 | 0.0 | 0.0 | 0.00 | 0.00 | 0.00 | 91 | 1010.4 |
| 20260505082037 | 8 | 0 | 0.0 | 0.0 | 0.00 | 0.00 | 0.00 | 92 | 1010.4 |
| 20260505081551 | 8 | 0 | 0.0 | 0.0 | 0.00 | 0.00 | 0.00 | 91 | 1010.4 |
| 20260505081037 | 8 | 0 | 0.0 | 0.0 | 0.00 | 0.00 | 0.00 | 90 | 1010.5 |
| 20260505080537 | 8 | 0 | 0.0 | 0.0 | 0.00 | 0.00 | 0.00 | 91 | 1010.5 |
| 20260505080054 | 8 | 0 | 0.0 | 0.0 | 0.00 | 0.00 | 0.00 | 90 | 1010.6 |
| 20260505075537 | 8 | 0 | 0.0 | 0.0 | 0.00 | 0.00 | 0.00 | 90 | 1010.4 |
| 20260505075037 | 8 | 0 | 0.0 | 0.0 | 0.00 | 0.00 | 0.00 | 90 | 1010.5 |
| 20260505074550 | 8 | 0 | 0.0 | 0.0 | 0.00 | 0.00 | 0.00 | 90 | 1010.5 |
| 20260505074037 | 8 | 0 | 0.0 | 0.0 | 0.00 | 0.00 | 0.00 | 89 | 1010.6 |
| 20260505073538 | 8 | 0 | 0.0 | 0.0 | 0.00 | 0.00 | 0.00 | 89 | 1010.7 |
| 20260505073049 | 8 | 0 | 0.0 | 0.0 | 0.00 | 0.00 | 0.00 | 87 | 1010.7 |
| 20260505072538 | 8 | 0 | 0.0 | 0.0 | 0.00 | 0.00 | 0.00 | 87 | 1010.7 |
| 20260505072038 | 8 | 0 | 0.0 | 1.6 | 0.00 | 0.00 | 0.00 | 87 | 1010.6 |
| 20260505071545 | 8 | 0 | 0.0 | 1.6 | 0.00 | 0.00 | 0.00 | 87 | 1010.7 |
| 20260505071038 | 8 | 0 | 0.0 | 0.0 | 0.00 | 0.00 | 0.00 | 86 | 1010.6 |
| 20260505070537 | 8 | 0 | 0.0 | 0.0 | 0.00 | 0.00 | 0.00 | 86 | 1010.7 |
| 20260505070051 | 8 | 0 | 0.0 | 1.6 | 0.00 | 0.00 | 0.00 | 85 | 1010.7 |
| 20260505065538 | 9 | 0 | 0.0 | 1.6 | 0.00 | 0.00 | 0.00 | 85 | 1010.7 |
| 20260505065036 | 9 | 0 | 0.0 | 1.6 | 0.00 | 0.00 | 0.00 | 85 | 1010.7 |
| 20260505064553 | 9 | 0 | 0.0 | 1.6 | 0.00 | 0.00 | 0.00 | 86 | 1010.7 |
| 20260505064037 | 9 | 0 | 0.0 | 0.0 | 0.00 | 0.00 | 0.00 | 84 | 1010.8 |
| 20260505063541 | 10 | 0 | 0.0 | 0.0 | 0.00 | 0.00 | 0.00 | 83 | 1010.7 |
| 20260505063047 | 10 | 0 | 0.0 | 1.6 | 0.00 | 0.00 | 0.00 | 83 | 1010.6 |
| 20260505062538 | 10 | 0 | 0.0 | 3.2 | 0.00 | 0.00 | 0.00 | 82 | 1010.7 |
| 20260505062037 | 10 | 0 | 0.0 | 3.2 | 0.00 | 0.00 | 0.00 | 82 | 1010.7 |
| 20260505061546 | 10 | 0 | 0.0 | 3.2 | 0.00 | 0.00 | 0.00 | 83 | 1010.7 |
| 20260505061036 | 10 | 226 | 0.0 | 4.8 | 0.00 | 0.00 | 0.00 | 82 | 1010.7 |
| 20260505060537 | 10 | 0 | 0.0 | 4.8 | 0.00 | 0.00 | 0.00 | 81 | 1010.7 |
| 20260505060042 | 10 | 89 | 0.0 | 4.8 | 0.00 | 0.00 | 0.00 | 81 | 1010.8 |
| 20260505055537 | 10 | 0 | 0.0 | 3.2 | 0.00 | 0.00 | 0.00 | 80 | 1010.7 |
| 20260505055038 | 10 | 255 | 0.0 | 3.2 | 0.00 | 0.00 | 0.00 | 81 | 1010.7 |
| 20260505054552 | 10 | 0 | 0.0 | 3.2 | 0.00 | 0.00 | 0.00 | 80 | 1010.8 |
| 20260505054040 | 10 | 0 | 0.0 | 3.2 | 0.00 | 0.00 | 0.00 | 80 | 1010.8 |
| 20260505053538 | 10 | 333 | 0.0 | 3.2 | 0.00 | 0.00 | 0.00 | 80 | 1010.7 |
| 20260505053111 | 11 | 0 | 0.0 | 3.2 | 0.00 | 0.00 | 0.00 | 79 | 1010.8 |
| 20260505052537 | 11 | 223 | 0.0 | 4.8 | 0.00 | 0.00 | 0.00 | 79 | 1010.8 |
| 20260505052041 | 11 | 0 | 0.0 | 4.8 | 0.00 | 0.00 | 0.00 | 79 | 1010.7 |
| 20260505051549 | 11 | 248 | 0.0 | 8.0 | 0.00 | 0.00 | 0.00 | 79 | 1010.8 |
| 20260505051037 | 11 | 250 | 0.0 | 8.0 | 0.00 | 0.00 | 0.00 | 79 | 1010.9 |
| 20260505050537 | 11 | 36 | 0.0 | 4.8 | 0.00 | 0.00 | 0.00 | 78 | 1011.0 |
| 20260505050103 | 11 | 0 | 0.0 | 8.0 | 0.00 | 0.00 | 0.00 | 78 | 1010.9 |
| 20260505041546 | 11 | 294 | 0.0 | 6.4 | 0.00 | 0.00 | 0.00 | 76 | 1011.0 |
| 20260505041039 | 11 | 231 | 0.0 | 6.4 | 0.00 | 0.00 | 0.00 | 76 | 1010.9 |
| 20260505040537 | 11 | 0 | 0.0 | 3.2 | 0.00 | 0.00 | 0.00 | 76 | 1010.9 |
| 20260505040045 | 11 | 329 | 0.0 | 3.2 | 0.00 | 0.00 | 0.00 | 75 | 1010.8 |
| 20260505035537 | 11 | 0 | 0.0 | 6.4 | 0.00 | 0.00 | 0.00 | 75 | 1010.9 |
| 20260505035036 | 11 | 188 | 0.0 | 6.4 | 0.00 | 0.00 | 0.00 | 75 | 1010.9 |
| 20260505034601 | 11 | 0 | 0.0 | 8.0 | 0.00 | 0.00 | 0.00 | 74 | 1010.9 |
| 20260505034037 | 11 | 0 | 1.6 | 8.0 | 0.00 | 0.00 | 0.00 | 74 | 1011.0 |
| 20260505033538 | 11 | 269 | 1.6 | 6.4 | 0.00 | 0.00 | 0.00 | 74 | 1011.0 |
| 20260505033052 | 11 | 261 | 1.6 | 6.4 | 0.00 | 0.00 | 0.00 | 74 | 1010.9 |
| 20260505032537 | 11 | 129 | 1.6 | 6.4 | 0.00 | 0.00 | 0.00 | 74 | 1010.9 |
| 20260505032038 | 11 | 281 | 1.6 | 8.0 | 0.00 | 0.00 | 0.00 | 74 | 1010.9 |
| 20260505031545 | 11 | 304 | 0.0 | 8.0 | 0.00 | 0.00 | 0.00 | 74 | 1011.1 |
| 20260505031037 | 11 | 0 | 1.6 | 8.0 | 0.00 | 0.00 | 0.00 | 73 | 1011.1 |
| 20260505030537 | 11 | 0 | 0.0 | 8.0 | 0.00 | 0.00 | 0.00 | 72 | 1011.2 |
| 20260505030051 | 11 | 257 | 0.0 | 11.3 | 0.00 | 0.00 | 0.00 | 73 | 1011.1 |
| 20260505025537 | 11 | 297 | 0.0 | 11.3 | 0.00 | 0.00 | 0.00 | 72 | 1011.1 |
| 20260505025037 | 11 | 243 | 1.6 | 11.3 | 0.00 | 0.00 | 0.00 | 72 | 1011.0 |
| 20260505024544 | 11 | 110 | 0.0 | 8.0 | 0.00 | 0.00 | 0.00 | 72 | 1011.1 |
| 20260505024037 | 12 | 4 | 1.6 | 8.0 | 0.00 | 0.00 | 0.00 | 71 | 1011.0 |
| 20260505023538 | 12 | 216 | 1.6 | 9.7 | 0.00 | 0.00 | 0.00 | 71 | 1011.0 |
| 20260505023050 | 12 | 277 | 0.0 | 11.3 | 0.00 | 0.00 | 0.00 | 71 | 1011.0 |
| 20260505022541 | 12 | 250 | 1.6 | 11.3 | 0.00 | 0.00 | 0.00 | 71 | 1011.0 |
| 20260505022038 | 12 | 0 | 0.0 | 6.4 | 0.00 | 0.00 | 0.00 | 71 | 1011.1 |
| 20260505021547 | 12 | 0 | 1.6 | 6.4 | 0.00 | 0.00 | 0.00 | 71 | 1011.2 |
| 20260505021039 | 12 | 184 | 1.6 | 8.0 | 0.00 | 0.00 | 0.00 | 70 | 1011.0 |
| 20260505020537 | 12 | 0 | 1.6 | 11.3 | 0.00 | 0.00 | 0.00 | 70 | 1011.0 |
| 20260505020048 | 12 | 294 | 3.2 | 11.3 | 0.00 | 0.00 | 0.00 | 70 | 1010.9 |
| 20260505015538 | 12 | 0 | 1.6 | 9.7 | 0.00 | 0.00 | 0.00 | 70 | 1011.0 |
| 20260505015038 | 12 | 216 | 1.6 | 6.4 | 0.00 | 0.00 | 0.00 | 70 | 1011.0 |
| 20260505014544 | 12 | 0 | 0.0 | 4.8 | 0.00 | 0.00 | 0.00 | 70 | 1011.0 |
| 20260505014037 | 12 | 283 | 0.0 | 4.8 | 0.00 | 0.00 | 0.00 | 69 | 1010.9 |
| 20260505013537 | 12 | 0 | 0.0 | 6.4 | 0.00 | 0.00 | 0.00 | 69 | 1010.9 |
| 20260505013051 | 12 | 233 | 1.6 | 6.4 | 0.00 | 0.00 | 0.00 | 69 | 1010.8 |
| 20260505012537 | 12 | 75 | 1.6 | 12.9 | 0.00 | 0.00 | 0.00 | 68 | 1010.6 |
| 20260505012037 | 12 | 233 | 1.6 | 12.9 | 0.00 | 0.00 | 0.00 | 68 | 1010.6 |
| 20260505011604 | 12 | 4 | 1.6 | 11.3 | 0.00 | 0.00 | 0.00 | 67 | 1010.5 |
| 20260505011038 | 12 | 283 | 0.0 | 12.9 | 0.00 | 0.00 | 0.00 | 67 | 1010.4 |
| 20260505010538 | 12 | 240 | 1.6 | 12.9 | 0.00 | 0.00 | 0.00 | 66 | 1010.4 |
| 20260505010046 | 13 | 0 | 0.0 | 12.9 | 0.00 | 0.00 | 0.00 | 66 | 1010.4 |
| 20260505005537 | 13 | 304 | 1.6 | 8.0 | 0.00 | 0.00 | 0.00 | 65 | 1010.2 |
| 20260505005038 | 13 | 340 | 1.6 | 8.0 | 0.00 | 0.00 | 0.00 | 64 | 1010.0 |
| 20260505004547 | 13 | 271 | 1.6 | 6.4 | 0.00 | 0.00 | 0.00 | 63 | 1010.0 |
| 20260505004037 | 13 | 0 | 1.6 | 9.7 | 0.00 | 0.00 | 0.00 | 62 | 1009.9 |
| 20260505003536 | 13 | 257 | 1.6 | 9.7 | 0.00 | 0.00 | 0.00 | 61 | 1009.7 |
| 20260505003052 | 13 | 274 | 3.2 | 8.0 | 0.00 | 0.00 | 0.00 | 60 | 1009.5 |
| 20260505002538 | 13 | 221 | 0.0 | 12.9 | 0.00 | 0.00 | 0.00 | 59 | 1009.5 |
| 20260505002037 | 13 | 245 | 1.6 | 12.9 | 0.00 | 0.00 | 0.00 | 58 | 1009.4 |
| 20260505001603 | 13 | 118 | 1.6 | 12.9 | 0.00 | 0.00 | 0.00 | 57 | 1009.4 |
| 20260505001037 | 13 | 270 | 0.0 | 12.9 | 0.00 | 0.00 | 0.00 | 56 | 1009.4 |
| 20260505000537 | 13 | 253 | 1.6 | 8.0 | 0.00 | 0.00 | 0.00 | 55 | 1009.1 |
| 20260505000104 | 14 | 0 | 1.6 | 8.0 | 0.00 | 0.00 | 0.00 | 54 | 1009.1 |
| 20260504235538 | 14 | 236 | 3.2 | 12.9 | 0.00 | 0.00 | 0.00 | 54 | 1008.9 |
| 20260504235037 | 14 | 336 | 1.6 | 12.9 | 0.00 | 0.00 | 0.00 | 53 | 1008.8 |
| 20260504234545 | 15 | 45 | 3.2 | 11.3 | 0.00 | 0.00 | 0.00 | 52 | 1008.7 |
| 20260504234036 | 15 | 221 | 3.2 | 9.7 | 0.00 | 0.00 | 0.00 | 51 | 1008.8 |
| 20260504233537 | 15 | 220 | 1.6 | 14.5 | 0.00 | 0.00 | 0.00 | 51 | 1008.7 |
| 20260504233057 | 15 | 130 | 3.2 | 20.9 | 0.00 | 0.00 | 0.00 | 50 | 1008.6 |
| 20260504232537 | 15 | 252 | 3.2 | 20.9 | 0.00 | 0.00 | 0.00 | 50 | 1008.6 |
| 20260504232036 | 15 | 302 | 4.8 | 16.1 | 0.00 | 0.00 | 0.00 | 49 | 1008.4 |
| 20260504231546 | 15 | 266 | 1.6 | 14.5 | 0.00 | 0.00 | 0.00 | 49 | 1008.2 |
| 20260504231037 | 15 | 245 | 1.6 | 14.5 | 0.00 | 0.00 | 0.00 | 49 | 1008.3 |
| 20260504230539 | 15 | 242 | 1.6 | 12.9 | 0.00 | 0.00 | 0.00 | 48 | 1008.2 |
| 20260504230049 | 16 | 280 | 1.6 | 12.9 | 0.00 | 0.00 | 0.00 | 48 | 1008.2 |
| 20260504225538 | 16 | 295 | 1.6 | 12.9 | 0.00 | 0.00 | 0.00 | 48 | 1008.1 |
| 20260504225037 | 16 | 278 | 1.6 | 12.9 | 0.00 | 0.00 | 0.00 | 47 | 1008.0 |
| 20260504224547 | 16 | 296 | 1.6 | 12.9 | 0.00 | 0.00 | 0.00 | 47 | 1008.0 |
| 20260504224035 | 16 | 287 | 1.6 | 8.0 | 0.00 | 0.00 | 0.00 | 46 | 1007.9 |
| 20260504223537 | 16 | 221 | 1.6 | 12.9 | 0.00 | 0.00 | 0.00 | 46 | 1007.8 |
| 20260504223048 | 16 | 238 | 3.2 | 12.9 | 0.00 | 0.00 | 0.00 | 46 | 1007.8 |
| 20260504222542 | 17 | 271 | 0.0 | 17.7 | 0.00 | 0.00 | 0.00 | 46 | 1007.7 |
| 20260504222038 | 17 | 120 | 3.2 | 17.7 | 0.00 | 0.00 | 0.00 | 46 | 1007.8 |
| 20260504221544 | 17 | 261 | 3.2 | 12.9 | 0.00 | 0.00 | 0.00 | 46 | 1007.7 |
| 20260504221038 | 17 | 223 | 1.6 | 12.9 | 0.00 | 0.00 | 0.00 | 45 | 1007.7 |
| 20260504220537 | 17 | 236 | 4.8 | 12.9 | 0.00 | 0.00 | 0.00 | 45 | 1007.6 |
| 20260504220053 | 17 | 11 | 3.2 | 12.9 | 0.00 | 0.00 | 0.00 | 44 | 1007.6 |
| 20260504215538 | 17 | 72 | 1.6 | 14.5 | 0.00 | 0.00 | 0.00 | 44 | 1007.7 |
| 20260504215038 | 18 | 273 | 1.6 | 14.5 | 0.00 | 0.00 | 0.00 | 44 | 1007.6 |
| 20260504214546 | 18 | 235 | 1.6 | 9.7 | 0.00 | 0.00 | 0.00 | 43 | 1007.6 |
| 20260504214037 | 18 | 252 | 1.6 | 9.7 | 0.00 | 0.00 | 0.00 | 43 | 1007.6 |
| 20260504213536 | 18 | 250 | 1.6 | 16.1 | 0.00 | 0.00 | 0.00 | 42 | 1007.4 |
| 20260504213053 | 18 | 255 | 3.2 | 16.1 | 0.00 | 0.00 | 0.00 | 42 | 1007.5 |
| 20260504212537 | 18 | 215 | 1.6 | 9.7 | 0.00 | 0.00 | 0.00 | 41 | 1007.5 |
| 20260504212038 | 18 | 282 | 4.8 | 9.7 | 0.00 | 0.00 | 0.00 | 41 | 1007.4 |
| 20260504211543 | 18 | 271 | 1.6 | 9.7 | 0.00 | 0.00 | 0.00 | 40 | 1007.5 |
| 20260504211035 | 18 | 308 | 3.2 | 16.1 | 0.00 | 0.00 | 0.00 | 39 | 1007.4 |
| 20260504210537 | 18 | 258 | 3.2 | 16.1 | 0.00 | 0.00 | 0.00 | 38 | 1007.4 |
| 20260504210047 | 18 | 205 | 4.8 | 16.1 | 0.00 | 0.00 | 0.00 | 37 | 1007.3 |
| 20260504205539 | 19 | 266 | 1.6 | 16.1 | 0.00 | 0.00 | 0.00 | 38 | 1007.4 |
| 20260504205036 | 19 | 229 | 6.4 | 16.1 | 0.00 | 0.00 | 0.00 | 36 | 1007.4 |
| 20260504204547 | 19 | 255 | 3.2 | 22.5 | 0.00 | 0.00 | 0.00 | 36 | 1007.4 |
| 20260504204035 | 19 | 247 | 4.8 | 22.5 | 0.00 | 0.00 | 0.00 | 36 | 1007.3 |
| 20260504203537 | 19 | 213 | 1.6 | 9.7 | 0.00 | 0.00 | 0.00 | 36 | 1007.3 |
| 20260504203055 | 19 | 263 | 1.6 | 14.5 | 0.00 | 0.00 | 0.00 | 36 | 1007.2 |
| 20260504202535 | 18 | 282 | 3.2 | 17.7 | 0.00 | 0.00 | 0.00 | 35 | 1007.2 |
| 20260504202041 | 18 | 240 | 4.8 | 17.7 | 0.00 | 0.00 | 0.00 | 35 | 1007.2 |
| 20260504201550 | 19 | 276 | 4.8 | 17.7 | 0.00 | 0.00 | 0.00 | 35 | 1007.2 |
| 20260504201037 | 19 | 286 | 6.4 | 17.7 | 0.00 | 0.00 | 0.00 | 34 | 1007.3 |
| 20260504200536 | 19 | 245 | 1.6 | 12.9 | 0.00 | 0.00 | 0.00 | 36 | 1007.2 |
| 20260504200045 | 19 | 257 | 3.2 | 16.1 | 0.00 | 0.00 | 0.00 | 35 | 1007.3 |
| 20260504195535 | 19 | 281 | 3.2 | 16.1 | 0.00 | 0.00 | 0.00 | 35 | 1007.3 |
| 20260504195037 | 19 | 105 | 4.8 | 25.7 | 0.00 | 0.00 | 0.00 | 34 | 1007.3 |
| 20260504194553 | 20 | 47 | 4.8 | 25.7 | 0.00 | 0.00 | 0.00 | 34 | 1007.2 |
| 20260504194035 | 20 | 190 | 8.0 | 25.7 | 0.00 | 0.00 | 0.00 | 33 | 1007.2 |
| 20260504193537 | 20 | 214 | 1.6 | 16.1 | 0.00 | 0.00 | 0.00 | 34 | 1007.3 |
| 20260504193046 | 20 | 269 | 4.8 | 16.1 | 0.00 | 0.00 | 0.00 | 33 | 1007.1 |
| 20260504192537 | 20 | 212 | 3.2 | 11.3 | 0.00 | 0.00 | 0.00 | 35 | 1007.2 |
| 20260504192035 | 20 | 262 | 3.2 | 16.1 | 0.00 | 0.00 | 0.00 | 34 | 1007.0 |
| 20260504191559 | 20 | 158 | 1.6 | 16.1 | 0.00 | 0.00 | 0.00 | 35 | 1007.1 |
| 20260504191035 | 20 | 0 | 4.8 | 16.1 | 0.00 | 0.00 | 0.00 | 35 | 1007.1 |
| 20260504190537 | 20 | 292 | 4.8 | 16.1 | 0.00 | 0.00 | 0.00 | 33 | 1007.3 |
| 20260504190049 | 20 | 342 | 3.2 | 16.1 | 0.00 | 0.00 | 0.00 | 33 | 1007.2 |
| 20260504185537 | 21 | 218 | 6.4 | 20.9 | 0.00 | 0.00 | 0.00 | 31 | 1007.3 |
| 20260504185039 | 21 | 300 | 6.4 | 20.9 | 0.00 | 0.00 | 0.00 | 30 | 1007.3 |
| 20260504184542 | 21 | 193 | 3.2 | 17.7 | 0.00 | 0.00 | 0.00 | 28 | 1007.3 |
| 20260504184038 | 21 | 216 | 6.4 | 19.3 | 0.00 | 0.00 | 0.00 | 27 | 1007.4 |
| 20260504183537 | 21 | 276 | 4.8 | 20.9 | 0.00 | 0.00 | 0.00 | 27 | 1007.5 |
| 20260504183046 | 21 | 256 | 1.6 | 20.9 | 0.00 | 0.00 | 0.00 | 27 | 1007.3 |
| 20260504182536 | 21 | 19 | 3.2 | 20.9 | 0.00 | 0.00 | 0.00 | 27 | 1007.5 |
| 20260504182035 | 21 | 262 | 4.8 | 19.3 | 0.00 | 0.00 | 0.00 | 28 | 1007.6 |
| 20260504181551 | 21 | 113 | 3.2 | 20.9 | 0.00 | 0.00 | 0.00 | 28 | 1007.4 |
| 20260504181035 | 21 | 101 | 3.2 | 20.9 | 0.00 | 0.00 | 0.00 | 27 | 1007.5 |
| 20260504180538 | 21 | 219 | 4.8 | 16.1 | 0.00 | 0.00 | 0.00 | 28 | 1007.4 |
| 20260504180047 | 21 | 225 | 4.8 | 12.9 | 0.00 | 0.00 | 0.00 | 27 | 1007.4 |
| 20260504175538 | 21 | 114 | 1.6 | 14.5 | 0.00 | 0.00 | 0.00 | 28 | 1007.5 |
| 20260504175038 | 21 | 321 | 3.2 | 14.5 | 0.00 | 0.00 | 0.00 | 28 | 1007.4 |
| 20260504174550 | 21 | 307 | 3.2 | 22.5 | 0.00 | 0.00 | 0.00 | 28 | 1007.4 |
| 20260504174039 | 21 | 202 | 1.6 | 22.5 | 0.00 | 0.00 | 0.00 | 28 | 1007.3 |
| 20260504173537 | 21 | 246 | 3.2 | 17.7 | 0.00 | 0.00 | 0.00 | 26 | 1007.2 |
| 20260504173046 | 21 | 221 | 3.2 | 14.5 | 0.00 | 0.00 | 0.00 | 27 | 1007.4 |
| 20260504172541 | 21 | 203 | 4.8 | 14.5 | 0.00 | 0.00 | 0.00 | 27 | 1007.3 |
| 20260504172037 | 21 | 260 | 3.2 | 14.5 | 0.00 | 0.00 | 0.00 | 28 | 1007.3 |
| 20260504171551 | 21 | 311 | 4.8 | 14.5 | 0.00 | 0.00 | 0.00 | 26 | 1007.3 |
| 20260504171036 | 21 | 276 | 1.6 | 12.9 | 0.00 | 0.00 | 0.00 | 28 | 1007.4 |
| 20260504170537 | 21 | 212 | 1.6 | 12.9 | 0.00 | 0.00 | 0.00 | 28 | 1007.3 |
| 20260504151037 | 20 | 341 | 3.2 | 8.0 | 0.00 | 0.00 | 0.00 | 32 | 1009.0 |
| 20260504150535 | 20 | 279 | 1.6 | 9.7 | 0.00 | 0.00 | 0.00 | 30 | 1008.9 |
| 20260504141037 | 19 | 0 | 0.0 | 0.0 | 0.00 | 0.00 | 0.00 | 35 | 1009.8 |
| 20260504140536 | 18 | 0 | 0.0 | 0.0 | 0.00 | 0.00 | 0.00 | 35 | 1009.8 |
| 20260504130538 | 16 | 0 | 0.0 | 0.0 | 0.00 | 0.00 | 0.00 | 39 | 1010.3 |
| 20260504110537 | 9 | 0 | 0.0 | 0.0 | 0.00 | 0.00 | 0.00 | 60 | 1010.7 |
| 20260504100537 | 6 | 0 | 0.0 | 0.0 | 0.00 | 0.00 | 0.00 | 67 | 1010.4 |